Starlink 1777

operational
NORAD ID: 47122 Int'l Des: 2020-088 Owner: SPXS Country: US Constellation: starlink
LEOCIRCULARSTARLINK_TYPE

Über Starlink 1777

Beschreibung wird geladen...

Live-Position

3D-Globus wird geladen...

Nächste Überflüge

Höhenverlauf

Altitude vs Time

uPlot chart will show altitude changes over time

Zweizeiliger Elementsatz

1 47122U 20088A 25350.61513008 .00001775 00000-0 13806-3 0 9994
2 47122 53.0547 314.5555 0001289 93.9105 266.2031 15.06395911279319
Epoch: 16. Dez. 2025 • Age: 18 hours

Aktueller Status

Höhe 552.9 km
Geschwindigkeit 7.59 km/s
Subsatellitenpunkt 53.14°N, 179°W
Startdatum 25. Nov. 2020
Alter 5 years
Typ internet

Technische Details

Klassifizierung Payload
Masse 260.00 kg
Trockenmasse 248.00 kg
Gesamtmasse 260.00 kg
Länge 0.20 m
Durchmesser 2.80 m
Spannweite 9.00 m
Form Box + pan
Hersteller SPXS
Bus-Typ Starlink
Phasenstatus In Orbit
Besitzer/Staat SPXS/US

Große Konstellationen

Loading constellations...